Temperature
6 6 6 7 7 6 6 6 6 6 6 6 6 6 6 6 6 6 6 5 5 5 5 5 5 5 5 5 4 4 4 4 3 3 3 3 3 3 3 3 3 3 3
6 6 6 6 6 6 6 6 6 6 6 6 6 6 6 5 5 5 5 5 5 5 5 4 4 4 4 4 4 4 3 3 3 3 3 3 2 2 2 2 2 2 2
6 6 6 6 6 6 6 6 5 5 5 5 5 5 5 5 5 5 4 4 4 4 4 4 4 4 4 3 3 3 3 3 2 2 2 2 2 2 2 2 2 2 1
5 5 5 5 5 5 5 5 5 5 5 5 5 4 4 4 4 4 4 4 4 4 4 3 3 3 3 3 3 3 2 2 2 2 1 1 1 1 1 1 1 1 1
5 5 5 5 4 4 4 4 4 4 4 4 4 4 4 4 3 3 3 3 3 3 3 3 3 3 3 3 3 2 2 1 1 1 1 1 1 1 0 0 0 0 0
4 4 4 4 4 4 4 4 4 4 4 3 3 3 3 3 3 3 2 2 2 2 2 2 2 2 2 2 2 2 2 1 1 1 1 0 0 0 0 -0 -0 -1 -1
4 4 4 4 3 3 3 3 3 3 3 3 3 3 3 3 3 2 2 2 2 2 2 2 2 2 2 2 2 1 1 1 1 1 0 0 -0 -0 -0 -1 -1 -1 -1
3 3 3 3 3 3 3 3 3 3 2 2 2 2 2 2 2 2 2 1 1 1 1 2 2 1 1 1 1 1 0 0 0 0 -0 -0 -0 -1 -1 -1 -1 -1 -1
3 3 3 3 2 2 2 2 2 2 2 2 2 2 2 1 1 1 1 1 1 1 1 1 1 1 1 1 0 0 0 -0 -0 -0 -0 -0 -1 -1 -1 -1 -1 -2 -2
2 2 2 2 2 2 2 2 1 1 1 1 1 1 1 1 1 1 1 1 0 0 0 0 0 0 0 0 -0 -0 -0 -1 -1 -1 -0 -1 -1 -1 -1 -1 -2 -2 -2
2 2 2 2 1 1 1 1 1 1 0 0 0 0 0 0 0 0 0 0 0 -0 -0 -0 -0 -0 -0 -0 -1 -1 -1 -1 -1 -1 -1 -1 -1 -1 -1 -2 -2 -2 -2
1 1 1 1 1 1 0 0 0 0 -0 -0 -0 -0 -0 -0 -0 -0 -0 -0 -0 -1 -1 -0 -0 -1 -1 -1 -1 -1 -1 -1 -1 -2 -2 -2 -2 -2 -2 -2 -2 -2 -2
1 1 1 0 0 -0 -0 -0 -0 -1 -1 -1 -1 -1 -1 -1 -1 -1 -1 -1 -1 -1 -1 -1 -1 -1 -1 -1 -1 -1 -2 -2 -2 -2 -2 -2 -2 -2 -2 -2 -2 -2 -2
0 0 -0 -0 -0 -1 -1 -1 -1 -1 -1 -1 -2 -2 -2 -2 -2 -2 -2 -2 -2 -2 -1 -1 -1 -1 -2 -2 -2 -2 -2 -2 -2 -2 -3 -3 -3 -3 -3 -3 -3 -3 -3
-1 -1 -1 -1 -1 -1 -1 -1 -1 -1 -1 -2 -2 -2 -2 -2 -2 -2 -2 -2 -2 -2 -2 -2 -2 -2 -2 -2 -2 -2 -3 -3 -3 -3 -3 -3 -3 -3 -3 -4 -4 -4 -4
-1 -1 -1 -1 -2 -2 -2 -2 -2 -2 -2 -2 -2 -3 -3 -3 -2 -2 -2 -3 -3 -3 -2 -2 -2 -3 -3 -3 -3 -3 -3 -3 -3 -3 -3 -3 -4 -4 -4 -4 -4 -4 -4
-2 -2 -2 -2 -2 -2 -2 -2 -3 -3 -3 -3 -3 -3 -3 -3 -3 -3 -3 -3 -3 -3 -3 -3 -3 -3 -3 -3 -3 -3 -3 -3 -4 -4 -4 -4 -4 -4 -4 -4 -5 -5 -5
-2 -2 -2 -2 -2 -3 -3 -3 -3 -3 -3 -3 -3 -3 -3 -3 -3 -3 -3 -3 -3 -3 -3 -3 -3 -3 -3 -3 -3 -3 -4 -4 -4 -4 -4 -4 -4 -4 -5 -5 -5 -5 -5
-3 -3 -3 -3 -3 -3 -3 -3 -3 -4 -4 -4 -4 -4 -4 -4 -4 -4 -4 -4 -3 -4 -4 -3 -3 -3 -3 -3 -4 -4 -4 -4 -4 -4 -4 -4 -5 -5 -5 -5 -5 -5 -5
-3 -3 -3 -4 -4 -4 -4 -4 -4 -4 -4 -4 -4 -4 -4 -4 -4 -4 -4 -4 -4 -4 -4 -4 -4 -4 -4 -4 -4 -4 -4 -4 -5 -5 -5 -5 -5 -5 -5 -5 -5 -5 -5
-4 -4 -4 -4 -4 -4 -4 -4 -4 -4 -4 -5 -4 -4 -4 -5 -4 -4 -4 -4 -4 -4 -4 -4 -4 -4 -4 -4 -4 -4 -4 -5 -5 -5 -5 -5 -5 -5 -5 -5 -5 -6 -5
-4 -4 -4 -4 -4 -4 -4 -4 -4 -5 -5 -5 -5 -5 -5 -4 -4 -4 -4 -4 -4 -4 -4 -4 -4 -4 -4 -4 -4 -4 -5 -5 -5 -5 -5 -5 -5 -5 -5 -5 -5 -6 -6
-4 -4 -4 -4 -5 -5 -5 -5 -5 -5 -5 -5 -5 -5 -5 -5 -5 -5 -5 -5 -4 -4 -4 -4 -4 -4 -4 -4 -5 -5 -5 -5 -5 -5 -5 -5 -5 -5 -5 -5 -6 -6 -6
-5 -5 -5 -5 -5 -5 -5 -5 -5 -5 -5 -5 -5 -5 -5 -5 -5 -5 -5 -5 -5 -5 -5 -5 -5 -4 -5 -5 -5 -5 -5 -5 -5 -5 -5 -5 -5 -6 -6 -6 -6 -6 -6
-5 -5 -5 -5 -5 -5 -5 -5 -6 -6 -6 -5 -5 -5 -5 -5 -5 -5 -5 -5 -5 -5 -5 -5 -5 -5 -5 -5 -5 -5 -5 -5 -5 -5 -5 -6 -6 -6 -6 -6 -6 -6 -6
-6 -6 -6 -6 -6 -6 -6 -6 -6 -6 -6 -6 -5 -5 -5 -5 -5 -5 -5 -5 -5 -5 -5 -5 -5 -5 -5 -5 -5 -5 -5 -6 -6 -6 -6 -6 -6 -6 -6 -6 -6 -6 -6
Wind_Speed
5 5 5 6 6 5 5 5 4 4 4 5 5 5 5 4 5 5 5 5 5 4 4 4 4 3 3 3 3 3 4 5 7 6 6 6 7 7 7 8 8 9 9
5 5 5 5 5 5 5 5 4 5 4 4 5 5 4 4 4 5 5 5 5 5 4 4 4 3 4 3 3 4 4 5 5 7 7 6 7 7 7 8 8 8 9
4 4 5 5 5 5 5 4 4 4 4 3 4 4 4 4 4 4 5 5 4 4 4 4 4 4 4 4 4 4 4 4 4 5 6 6 6 6 7 7 8 7 8
4 4 4 4 4 4 4 4 4 4 4 4 4 4 4 4 4 4 4 4 4 4 4 4 5 5 5 5 4 5 4 4 4 5 5 6 6 6 6 6 7 7 7
4 4 4 4 3 4 4 4 4 4 4 4 4 4 3 4 4 4 4 4 4 4 4 5 5 5 6 5 4 4 4 4 4 4 5 6 6 5 6 6 7 7 8
4 4 4 4 3 3 3 3 4 4 4 4 4 4 4 3 4 5 5 4 4 5 5 4 5 5 5 5 5 5 5 5 5 5 5 6 7 7 6 6 7 7 6
4 4 4 4 4 4 4 4 4 4 3 4 4 4 4 4 5 5 5 4 5 5 5 5 4 4 4 4 4 5 5 6 7 6 6 7 7 7 7 7 7 8 7
3 3 3 4 4 4 4 4 4 3 3 3 4 4 3 4 5 4 4 4 4 5 5 5 5 5 4 4 4 4 5 4 5 5 6 6 6 6 6 7 7 7 7
2 3 3 4 4 4 4 4 3 3 3 3 3 3 3 4 5 5 3 3 4 4 4 4 5 5 4 4 4 4 4 4 4 5 6 5 6 7 7 5 5 5 6
2 2 2 3 4 4 4 3 3 3 3 3 3 3 3 4 4 5 4 3 3 3 3 4 5 5 5 4 4 3 3 4 4 4 4 4 5 5 6 5 4 4 5
1 1 2 2 3 3 3 3 3 3 2 3 2 2 3 3 4 4 4 3 3 3 3 3 3 4 5 5 4 3 3 4 4 3 4 4 4 4 5 5 4 4 4
2 2 2 2 2 3 3 3 3 3 3 3 2 2 2 2 3 3 4 3 4 3 3 3 3 4 4 4 3 2 2 3 2 3 3 4 4 4 4 5 5 5 5
2 2 2 2 2 3 3 3 3 3 3 3 2 2 2 1 2 3 3 3 3 3 3 3 3 3 3 2 1 1 1 1 2 2 3 4 4 4 4 4 5 5 5
2 2 2 3 2 2 2 3 3 3 3 3 3 2 2 2 2 2 1 1 1 1 1 1 1 1 1 1 0 1 1 1 2 2 3 3 4 3 3 3 3 4 4
2 2 2 3 3 2 2 2 2 3 3 3 3 3 3 3 3 3 2 1 1 1 0 0 0 0 0 0 1 1 1 2 2 2 2 3 3 3 3 3 3 4 4
2 2 2 2 2 2 2 1 1 2 2 3 4 4 3 4 3 3 3 3 2 2 1 1 1 1 1 1 1 1 2 2 2 2 2 2 2 3 3 3 3 3 3
3 2 2 2 3 3 2 2 1 1 2 2 3 3 3 3 3 3 2 2 3 2 1 1 1 1 1 1 1 1 1 2 2 2 2 2 2 2 2 3 3 3 4
2 2 2 2 2 2 2 2 2 2 2 1 2 3 3 3 3 3 3 2 1 1 1 1 1 1 1 1 1 1 1 1 1 2 2 2 2 2 2 2 3 3 4
2 2 2 2 2 2 2 2 2 2 2 2 1 1 2 2 3 3 2 1 2 1 1 1 1 1 1 1 1 1 1 1 1 2 2 2 2 2 2 2 2 3 4
2 2 2 2 2 2 2 3 2 2 2 2 2 2 1 1 1 1 0 1 1 1 1 1 1 1 1 1 1 1 1 1 1 1 1 1 1 2 2 2 2 3 3
2 2 2 2 2 2 2 3 3 2 2 2 2 2 2 1 1 1 1 1 1 1 1 1 1 1 1 1 1 1 1 1 1 1 1 1 1 1 2 2 2 2 3
2 2 2 2 2 2 2 2 2 2 2 2 1 1 1 1 1 1 1 1 0 1 0 1 1 1 1 1 1 1 1 1 1 1 1 1 1 1 2 2 2 2 2
1 2 2 2 2 2 2 2 2 2 2 1 1 1 1 1 1 1 1 0 0 0 0 1 1 0 0 0 1 1 1 1 2 1 1 1 1 1 1 2 2 2 2
1 2 2 2 2 2 2 1 1 1 1 1 1 1 1 1 1 1 1 1 1 1 1 1 1 1 0 0 0 1 1 1 2 1 1 1 1 1 1 1 1 2 2
1 2 2 2 2 2 1 1 1 1 1 1 1 1 1 1 1 1 1 1 1 1 1 1 1 1 1 0 0 0 1 1 1 1 1 1 1 1 1 1 1 1 2
1 2 2 2 2 2 1 1 1 1 1 1 1 1 1 1 1 1 1 1 1 1 0 1 1 1 1 1 1 0 0 0 0 0 0 0 0 0 1 1 1 1 2
Wind_Direction
205 207 208 205 200 199 202 204 204 202 199 199 199 202 207 211 204 206 205 205 212 221 226 230 235 253 257 255 258 259 260 261 270 285 291 298 297 296 304 302 301 299 296
201 200 203 202 195 195 200 200 199 202 203 203 202 201 205 207 207 212 211 210 212 219 227 231 239 256 258 255 255 258 263 268 271 283 293 300 299 296 301 302 303 300 297
197 195 195 203 199 198 199 194 195 199 201 203 202 204 207 206 209 216 217 216 216 222 226 235 244 251 256 255 262 267 270 277 282 281 291 300 300 301 304 304 304 304 303
197 196 197 205 200 197 196 192 193 197 199 203 203 206 208 205 208 213 217 215 221 226 232 242 245 246 255 255 260 266 274 281 286 286 292 297 302 307 306 309 308 308 303
197 199 201 198 193 188 189 190 191 196 200 204 201 203 208 208 209 212 221 221 222 227 237 248 252 256 268 264 264 269 275 278 284 286 292 301 304 312 309 308 304 309 307
197 200 194 186 184 183 183 183 186 190 196 201 203 204 209 215 208 213 220 223 228 231 238 250 252 252 258 261 267 268 270 270 273 279 289 294 300 305 305 304 308 311 307
198 196 190 185 185 187 184 183 189 196 200 205 205 210 217 213 207 216 220 226 228 234 238 243 252 256 248 252 262 263 267 270 269 272 276 285 293 299 300 300 300 301 300
193 192 192 190 186 185 187 191 197 200 206 212 210 214 217 212 207 215 224 234 242 243 243 245 246 256 245 253 265 272 278 283 285 284 281 287 293 296 293 291 292 295 300
195 199 200 190 183 184 190 194 197 199 209 215 212 211 216 216 208 212 230 244 247 255 256 251 247 256 245 254 262 270 284 301 311 303 301 299 299 296 300 297 299 303 308
217 215 203 191 186 189 192 194 195 196 208 205 208 213 216 221 213 221 229 235 245 261 266 256 249 250 241 247 259 258 272 294 305 316 313 310 308 304 301 294 289 297 306
216 196 187 187 190 187 183 187 182 185 198 200 201 215 221 221 220 231 238 238 236 248 255 262 256 242 247 248 262 256 262 290 294 301 309 315 317 320 322 324 316 299 293
178 179 176 172 175 177 177 177 177 176 188 191 193 219 229 225 235 237 245 248 252 249 252 265 254 240 251 259 269 264 280 298 293 300 307 312 316 322 327 331 328 322 308
173 175 167 164 171 175 179 177 175 181 191 193 199 214 232 253 247 242 244 244 254 262 259 262 251 243 251 256 252 258 279 284 288 297 305 312 316 318 325 333 337 337 332
183 181 172 168 170 171 181 187 186 193 199 199 209 215 226 245 249 254 252 228 226 254 270 211 203 227 218 179 295 325 323 301 292 295 305 312 321 327 330 332 332 338 335
193 186 177 174 170 174 185 195 209 229 222 213 215 215 220 237 251 266 271 257 262 281 298 213 208 217 237 273 327 332 335 328 317 307 305 314 322 331 335 337 334 334 334
185 187 184 178 176 178 168 159 169 221 232 241 245 242 248 246 248 254 263 259 217 173 166 195 214 224 235 251 270 298 308 307 301 302 305 309 317 325 331 338 339 337 336
195 191 182 180 178 175 173 177 189 182 178 205 216 222 225 229 238 244 242 200 180 175 188 198 208 232 244 258 286 289 304 314 314 313 317 320 328 330 333 340 341 339 339
188 185 188 184 182 185 188 189 196 199 206 220 204 202 207 215 226 207 180 157 181 202 230 217 212 230 237 249 281 294 301 313 322 321 323 328 331 328 329 336 335 338 337
190 185 187 185 185 187 190 192 198 205 209 214 214 202 195 193 179 174 173 186 197 215 232 240 232 233 229 249 264 283 291 297 308 313 318 326 325 326 329 332 334 336 336
201 188 192 188 184 184 189 188 192 200 206 207 209 210 192 178 192 193 204 190 201 215 225 234 244 249 234 237 257 266 284 298 311 316 316 317 319 319 321 327 331 331 333
200 190 189 193 193 191 191 190 188 189 198 207 218 223 226 224 221 214 222 218 209 217 219 219 224 238 249 237 240 246 263 287 296 298 297 303 315 320 322 325 330 332 336
201 198 197 196 187 182 179 182 183 185 192 203 211 220 218 225 213 208 219 235 227 214 216 199 214 229 238 228 233 239 242 263 279 277 293 311 317 320 325 331 338 343 349
190 183 178 171 167 166 163 170 170 173 186 198 200 216 232 228 226 220 216 237 201 182 175 187 182 184 285 268 243 233 238 252 267 274 280 289 303 311 319 331 340 344 349
186 182 170 162 160 164 166 165 164 170 182 190 192 210 230 233 223 209 205 176 159 150 154 174 189 191 216 269 235 246 254 264 273 262 245 248 278 305 319 337 348 354 358
173 173 167 165 163 164 163 161 161 166 175 183 183 197 210 198 186 173 160 135 122 120 133 159 164 162 173 185 235 262 255 278 279 253 223 231 263 311 340 353 1 0 1
163 164 162 156 154 155 159 163 163 164 174 179 170 172 164 149 147 144 138 133 126 130 153 152 142 137 140 165 177 204 331 337 332 74 144 166 163 55 24 18 3 4 5
Height
1464 1466 1468 1470 1472 1473 1475 1477 1478 1479 1481 1482 1483 1484 1485 1485 1486 1487 1488 1488 1489 1490 1490 1490 1489 1490 1489 1489 1488 1488 1487 1485 1482 1479 1478 1476 1474 1471 1469 1467 1464 1461 1459
1461 1462 1464 1466 1468 1470 1471 1473 1474 1476 1477 1478 1479 1480 1481 1481 1482 1483 1483 1484 1485 1485 1486 1486 1485 1485 1485 1485 1484 1483 1482 1480 1479 1475 1473 1472 1469 1467 1464 1462 1459 1457 1454
1457 1458 1460 1462 1464 1466 1467 1469 1471 1472 1473 1474 1474 1475 1476 1477 1478 1479 1479 1480 1481 1481 1481 1482 1481 1481 1481 1481 1480 1479 1478 1476 1474 1472 1469 1467 1465 1463 1460 1457 1455 1452 1450
1454 1455 1457 1459 1461 1462 1463 1465 1466 1467 1468 1469 1470 1471 1472 1473 1474 1475 1475 1476 1476 1477 1477 1477 1477 1477 1477 1477 1475 1474 1473 1472 1470 1468 1466 1463 1461 1459 1456 1453 1450 1448 1445
1450 1452 1453 1455 1456 1458 1459 1461 1462 1463 1464 1465 1466 1467 1468 1469 1470 1471 1471 1472 1472 1472 1473 1473 1473 1473 1472 1472 1472 1470 1469 1468 1466 1465 1462 1460 1457 1455 1452 1449 1446 1443 1440
1447 1448 1450 1451 1452 1454 1455 1457 1458 1459 1460 1461 1462 1463 1464 1465 1466 1467 1468 1468 1468 1468 1468 1468 1468 1468 1468 1468 1467 1466 1466 1464 1463 1461 1459 1457 1454 1452 1449 1446 1443 1440 1436
1444 1445 1446 1447 1449 1450 1452 1453 1454 1455 1456 1457 1458 1459 1460 1461 1462 1463 1464 1464 1464 1464 1464 1464 1464 1464 1464 1463 1462 1462 1461 1460 1460 1458 1455 1453 1451 1449 1446 1443 1440 1438 1435
1441 1442 1443 1444 1445 1447 1448 1449 1450 1451 1452 1453 1454 1455 1456 1457 1458 1459 1460 1460 1460 1460 1460 1460 1460 1459 1459 1459 1458 1458 1457 1456 1455 1454 1452 1449 1447 1445 1443 1441 1438 1435 1432
1438 1439 1440 1441 1442 1443 1444 1446 1447 1448 1449 1450 1450 1451 1452 1453 1454 1455 1456 1456 1456 1456 1456 1456 1456 1455 1455 1455 1454 1453 1452 1451 1451 1449 1448 1445 1443 1441 1439 1437 1434 1432 1428
1435 1436 1438 1438 1439 1440 1441 1442 1443 1444 1445 1446 1446 1448 1449 1449 1450 1451 1452 1452 1452 1452 1452 1452 1452 1451 1451 1451 1451 1450 1448 1448 1447 1445 1443 1441 1440 1438 1436 1434 1432 1430 1427
1433 1434 1435 1436 1436 1437 1438 1439 1440 1441 1442 1442 1443 1444 1445 1446 1447 1447 1448 1448 1448 1448 1448 1447 1447 1448 1447 1447 1447 1446 1445 1445 1443 1442 1440 1438 1436 1435 1433 1431 1429 1428 1425
1431 1431 1432 1433 1434 1435 1435 1436 1437 1437 1438 1439 1440 1441 1442 1443 1443 1444 1444 1444 1445 1444 1444 1443 1444 1444 1444 1443 1443 1442 1442 1441 1440 1439 1437 1435 1434 1432 1430 1428 1427 1425 1423
1428 1429 1429 1430 1431 1432 1432 1433 1434 1435 1435 1436 1437 1437 1438 1439 1440 1440 1440 1441 1441 1441 1440 1440 1441 1441 1441 1440 1440 1439 1438 1438 1437 1436 1434 1433 1431 1430 1428 1426 1424 1422 1421
1425 1426 1427 1427 1428 1429 1430 1431 1431 1432 1432 1433 1434 1434 1435 1436 1436 1437 1437 1437 1437 1437 1437 1437 1437 1437 1437 1437 1436 1436 1436 1435 1434 1433 1432 1431 1429 1427 1425 1424 1422 1420 1418
1423 1423 1424 1424 1425 1426 1427 1428 1428 1430 1430 1431 1431 1432 1432 1432 1433 1434 1434 1434 1434 1434 1434 1434 1434 1435 1435 1434 1434 1433 1433 1432 1432 1431 1430 1428 1427 1426 1424 1422 1420 1418 1417
1420 1420 1421 1422 1422 1423 1424 1425 1426 1427 1428 1428 1429 1429 1429 1430 1431 1431 1432 1432 1432 1432 1432 1432 1432 1432 1432 1432 1431 1431 1431 1430 1430 1429 1428 1427 1426 1424 1422 1421 1419 1418 1416
1418 1418 1419 1419 1420 1420 1421 1422 1423 1425 1425 1426 1426 1427 1427 1427 1428 1429 1429 1429 1430 1430 1430 1430 1430 1430 1430 1430 1430 1429 1429 1428 1428 1427 1426 1425 1424 1423 1421 1420 1419 1417 1415
1416 1416 1417 1417 1418 1418 1419 1420 1421 1421 1422 1422 1424 1424 1425 1425 1426 1427 1427 1427 1427 1428 1428 1428 1429 1428 1428 1428 1428 1428 1427 1427 1426 1426 1425 1424 1423 1422 1421 1419 1418 1417 1415
1414 1414 1415 1415 1416 1416 1417 1418 1419 1419 1420 1420 1421 1422 1423 1423 1424 1425 1425 1425 1425 1426 1427 1427 1428 1427 1427 1427 1427 1427 1426 1425 1425 1424 1424 1423 1422 1421 1420 1419 1418 1417 1415
1412 1413 1413 1414 1414 1415 1415 1416 1416 1417 1418 1418 1419 1420 1420 1421 1421 1422 1423 1423 1424 1424 1425 1426 1426 1426 1426 1426 1425 1425 1425 1424 1423 1423 1423 1422 1422 1421 1420 1419 1418 1416 1415
1411 1411 1411 1412 1412 1413 1413 1414 1414 1415 1416 1417 1417 1418 1419 1419 1419 1420 1421 1421 1422 1423 1424 1425 1425 1425 1425 1424 1424 1424 1423 1423 1423 1423 1422 1422 1421 1421 1420 1419 1417 1416 1415
1409 1409 1410 1410 1411 1411 1412 1412 1413 1413 1414 1415 1415 1416 1417 1417 1418 1418 1419 1420 1421 1422 1423 1423 1423 1423 1423 1423 1423 1423 1422 1422 1422 1422 1421 1421 1421 1420 1419 1418 1417 1416 1415
1407 1408 1408 1409 1409 1409 1410 1411 1411 1412 1412 1413 1413 1414 1415 1415 1416 1417 1418 1419 1420 1421 1421 1422 1422 1422 1422 1422 1422 1422 1421 1421 1421 1421 1421 1420 1420 1420 1419 1418 1417 1416 1415
1406 1406 1407 1407 1407 1408 1408 1409 1409 1410 1411 1411 1412 1412 1413 1414 1415 1416 1417 1418 1419 1419 1420 1421 1421 1421 1421 1421 1421 1421 1421 1421 1420 1420 1420 1420 1420 1420 1419 1418 1417 1417 1416
1404 1405 1405 1406 1406 1406 1407 1408 1408 1409 1409 1410 1410 1411 1411 1412 1414 1415 1416 1417 1417 1418 1419 1419 1420 1420 1420 1420 1420 1420 1420 1420 1420 1420 1420 1420 1420 1419 1419 1419 1418 1417 1416
1403 1403 1404 1404 1405 1405 1406 1406 1407 1407 1408 1409 1409 1410 1411 1412 1412 1413 1414 1415 1416 1417 1418 1418 1418 1419 1419 1419 1419 1420 1420 1420 1420 1420 1420 1420 1420 1419 1419 1419 1418 1418 1417